Notices

What's New in latest Release from April 7th, 2021:

- Updated Glossary, including Speed of Maximum Gust, and Total Hourly Precipitation

- Updated national and regional climate services offices contacts and prices information

- Addition of station inventory lists for 1981-2010, 1971-2000, and 1961-1990 Normals.

If you haven't already, please take our survey and provide feedback about our website: https://eccc.sondage-survey.ca/f/LanguageSelection.aspx?s=442ca660-fcf1-47c0-95a9-59707d6fd709

Hourly Data Report for August 20, 2015

IQALUIT CLIMATE
NUNAVUT

63°44'50.000" N
68°32'40.000" W
33.50 m
2402592
71321
XFB

Download Data

Hourly Data (August 2015)
Hourly Data Report for August 20, 2015
TIME
LST
Temp Definition
°C
Dew Point Definition
°C
Rel Hum Definition
%
Precip. Amount Definition
mm

Wind Dir Definition
10's deg

Wind Spd Definition
km/h
Visibility Definition
km
Stn Press Definition
kPa
Hmdx Definition


Wind Chill Definition


Weather Definition


00:00 2.9 1.1 88 0.0 16 3   101.69     LegendNANA
01:00 2.7 1.2 89 0.0 14 5   101.75     LegendNANA
02:00 3.0 1.1 87 0.0 13 3   101.75     LegendNANA
03:00 3.3 1.1 86 0.0 17 4   101.78     LegendNANA
04:00 2.7 0.9 88 0.0 32 2   101.84     LegendNANA
05:00 4.8 1.7 80 0.0 22 2   101.88     LegendNANA
06:00 3.4 1.1 85 0.0 16 6   101.91     LegendNANA
07:00 4.1 1.4 83 0.0 15 7   101.91     LegendNANA
08:00 6.7 2.1 73 0.0 15 3   101.91     LegendNANA
09:00 8.1 3.1 71 0.0 14 3   101.88     LegendNANA
10:00 8.6 4.1 73 0.0 13 8   101.87     LegendNANA
11:00 5.7 2.4 79 0.0 14 8   101.90     LegendNANA
12:00 6.0 2.0 75 0.0 14 6   101.94     LegendNANA
13:00 6.6 1.9 72 0.0 13 7   101.91     LegendNANA
14:00
15:00
16:00
17:00 7.8 2.6 70 1.2 15 5   101.92     LegendNANA
18:00 7.3 2.2 70 0.0 15 7   101.94     LegendNANA
19:00 6.7 1.7 70 0.0 15 2   101.93     LegendNANA
20:00 6.2 1.7 73 0.0 19 2   101.96     LegendNANA
21:00 5.7 2.0 77 0.0 35 2   101.95     LegendNANA
22:00 4.6 1.5 81 0.0 23 3   101.92     LegendNANA
23:00 3.5 0.7 82 0.0 34 8   101.87     LegendNANA

Notes on Data Quality.

Legend

  • E = Estimated
  • M = Missing
  • NA = Not Available*
  • [empty] = Indicates an unobserved value
Date modified: